When you browse on this site, cookies collect data to enhance your experience and personalize the content and advertising you see.
Visit our Privacy Policy to learn more. By continuing to use the site, you agree to this use of cookies and data.
  • In Hungary
  • List of Countries
  • For 7 days
  • Water Temperature
  • Satellite Maps
  • Weather Map
  • News
  • Weather Widgets
  • user-avatar
    Login

    Hourly Weather Lleida

    Today, 19 November, Monday

    Time Temperature Precipitation Wind Pressure Humidity
    00:00 +10°C° 0 mm 4 mps 740 mmHg 82%
    01:00 +10°C° 0 mm 3 mps 740 mmHg 82%
    02:00 +10°C° 0 mm 3 mps 739 mmHg 82%
    03:00 +9°C° 0 mm 3 mps 739 mmHg 82%
    04:00 +9°C° 0 mm 3 mps 739 mmHg 81%
    05:00 +9°C° 0 mm 2 mps 738 mmHg 80%
    06:00 +9°C° 0 mm 2 mps 738 mmHg 80%
    07:00 +10°C° 0 mm 2 mps 738 mmHg 76%
    08:00 +10°C° 0 mm 2 mps 738 mmHg 72%
    09:00 +12°C° 0 mm 2 mps 737 mmHg 69%
    10:00 +13°C° 0 mm 2 mps 737 mmHg 66%
    11:00 +14°C° 0 mm 1 mps 737 mmHg 63%
    12:00 +15°C° 0 mm 1 mps 736 mmHg 60%
    13:00 +15°C° 0 mm 2 mps 736 mmHg 61%
    14:00 +15°C° 0 mm 2 mps 735 mmHg 62%
    15:00 +15°C° 0 mm 2 mps 735 mmHg 62%
    16:00 +14°C° 0.1 mm 2 mps 735 mmHg 67%
    17:00 +13°C° 0.1 mm 2 mps 735 mmHg 72%
    18:00 +12°C° 0.1 mm 2 mps 735 mmHg 77%
    19:00 +12°C° 0.1 mm 2 mps 735 mmHg 79%
    20:00 +12°C° 0.1 mm 2 mps 735 mmHg 81%
    21:00 +12°C° 0.1 mm 2 mps 735 mmHg 82%
    22:00 +10°C° 0.1 mm 2 mps 735 mmHg 84%
    23:00 +10°C° 0.1 mm 2 mps 735 mmHg 85%

    Tomorrow, 20 November, Tuesday

    Time Temperature Precipitation Wind Pressure Humidity
    00:00 +10°C° 0.1 mm 2 mps 735 mmHg 87%
    01:00 +11°C° 0 mm 1 mps 735 mmHg 87%
    02:00 +11°C° 0 mm 1 mps 735 mmHg 87%
    03:00 +11°C° 0 mm 1 mps 735 mmHg 87%
    04:00 +11°C° 0.1 mm 1 mps 734 mmHg 87%
    05:00 +11°C° 0.1 mm 1 mps 734 mmHg 87%
    06:00 +11°C° 0.1 mm 1 mps 734 mmHg 88%
    07:00 +11°C° 0.5 mm 1 mps 734 mmHg 86%
    08:00 +11°C° 0.5 mm 1 mps 735 mmHg 83%
    09:00 +12°C° 0.5 mm 1 mps 735 mmHg 81%
    10:00 +12°C° 0.3 mm 1 mps 735 mmHg 78%
    11:00 +13°C° 0.3 mm 1 mps 735 mmHg 75%
    12:00 +14°C° 0.3 mm 1 mps 734 mmHg 72%
    13:00 +14°C° 0.2 mm 2 mps 734 mmHg 72%
    14:00 +14°C° 0.2 mm 2 mps 734 mmHg 72%
    15:00 +15°C° 0.2 mm 2 mps 734 mmHg 72%
    16:00 +14°C° 1.6 mm 2 mps 735 mmHg 78%
    17:00 +13°C° 1.6 mm 2 mps 735 mmHg 84%
    18:00 +12°C° 1.6 mm 2 mps 735 mmHg 90%
    19:00 +10°C° 0.2 mm 2 mps 736 mmHg 89%
    20:00 +11°C° 0.2 mm 1 mps 736 mmHg 89%
    21:00 +11°C° 0.2 mm 1 mps 737 mmHg 89%
    22:00 +10°C° 0 mm 1 mps 737 mmHg 89%
    23:00 +10°C° 0 mm 1 mps 737 mmHg 89%

    Day after tomorrow, 21 November, Wednesday

    Time Temperature Precipitation Wind Pressure Humidity
    00:00 +9°C° 0 mm 2 mps 738 mmHg 89%
    01:00 +9°C° 0 mm 1 mps 738 mmHg 88%
    02:00 +9°C° 0 mm 1 mps 738 mmHg 88%
    03:00 +9°C° 0 mm 1 mps 739 mmHg 87%
    04:00 +9°C° 0 mm 1 mps 739 mmHg 87%
    05:00 +8°C° 0 mm 1 mps 739 mmHg 86%
    06:00 +8°C° 0 mm 1 mps 740 mmHg 86%
    07:00 +9°C° 0 mm 1 mps 740 mmHg 82%
    08:00 +10°C° 0 mm 1 mps 741 mmHg 77%
    09:00 +11°C° 0 mm 1 mps 742 mmHg 72%
    10:00 +13°C° 0 mm 2 mps 742 mmHg 68%
    11:00 +13°C° 0 mm 3 mps 742 mmHg 63%
    12:00 +14°C° 0 mm 3 mps 742 mmHg 59%
    13:00 +14°C° 0 mm 3 mps 743 mmHg 58%
    14:00 +14°C° 0 mm 3 mps 743 mmHg 58%
    15:00 +14°C° 0 mm 3 mps 743 mmHg 57%
    16:00 +14°C° 0 mm 2 mps 744 mmHg 63%
    17:00 +12°C° 0 mm 1 mps 744 mmHg 69%
    18:00 +11°C° 0 mm 1 mps 745 mmHg 75%
    19:00 +11°C° 0 mm 1 mps 745 mmHg 75%
    20:00 +10°C° 0 mm 1 mps 746 mmHg 76%
    21:00 +10°C° 0 mm 1 mps 746 mmHg 76%
    22:00 +10°C° 0 mm 1 mps 746 mmHg 75%
    23:00 +9°C° 0 mm 1 mps 747 mmHg 75%

    22 November, Thursday

    Time Temperature Precipitation Wind Pressure Humidity
    00:00 +9°C° 0 mm 1 mps 747 mmHg 74%
    01:00 +8°C° 0 mm 2 mps 747 mmHg 73%
    02:00 +8°C° 0 mm 2 mps 747 mmHg 72%
    03:00 +7°C° 0 mm 2 mps 747 mmHg 71%
    04:00 +7°C° 0 mm 2 mps 747 mmHg 70%
    05:00 +7°C° 0 mm 2 mps 747 mmHg 69%
    06:00 +7°C° 0 mm 2 mps 747 mmHg 68%
    07:00 +9°C° 0 mm 1 mps 747 mmHg 66%
    08:00 +11°C° 0 mm 1 mps 747 mmHg 63%
    09:00 +12°C° 0 mm 1 mps 748 mmHg 60%
    10:00 +12°C° 0.1 mm 1 mps 748 mmHg 61%
    11:00 +13°C° 0.1 mm 1 mps 747 mmHg 61%
    12:00 +13°C° 0.1 mm 0 mps 747 mmHg 62%
    13:00 +14°C° 0.1 mm 1 mps 747 mmHg 64%
    14:00 +14°C° 0.1 mm 1 mps 747 mmHg 66%
    15:00 +14°C° 0.1 mm 1 mps 747 mmHg 69%
    16:00 +13°C° 0 mm 1 mps 747 mmHg 72%
    17:00 +12°C° 0 mm 1 mps 748 mmHg 75%
    18:00 +12°C° 0 mm 1 mps 748 mmHg 79%
    19:00 +11°C° 0 mm 1 mps 748 mmHg 78%
    20:00 +11°C° 0 mm 1 mps 749 mmHg 78%
    21:00 +11°C° 0 mm 1 mps 749 mmHg 78%
    22:00 +11°C° 0 mm 1 mps 749 mmHg 77%
    23:00 +10°C° 0 mm 1 mps 749 mmHg 77%

    23 November, Friday

    Time Temperature Precipitation Wind Pressure Humidity
    00:00 +10°C° 0 mm 1 mps 749 mmHg 76%
    01:00 +10°C° 0 mm 1 mps 749 mmHg 77%
    02:00 +10°C° 0 mm 1 mps 749 mmHg 77%
    03:00 +10°C° 0 mm 1 mps 748 mmHg 77%
    04:00 +10°C° 0 mm 1 mps 748 mmHg 77%
    05:00 +9°C° 0 mm 1 mps 748 mmHg 76%
    06:00 +9°C° 0 mm 1 mps 748 mmHg 76%
    07:00 +10°C° 0.1 mm 1 mps 749 mmHg 74%
    08:00 +11°C° 0.1 mm 1 mps 749 mmHg 72%
    09:00 +12°C° 0.1 mm 1 mps 749 mmHg 70%
    10:00 +13°C° 0.1 mm 1 mps 749 mmHg 69%
    11:00 +14°C° 0.1 mm 1 mps 749 mmHg 67%
    12:00 +14°C° 0.1 mm 1 mps 748 mmHg 66%
    13:00 +15°C° 0.2 mm 1 mps 748 mmHg 67%
    14:00 +15°C° 0.2 mm 1 mps 747 mmHg 69%
    15:00 +15°C° 0.2 mm 1 mps 747 mmHg 70%
    16:00 +14°C° 0.5 mm 1 mps 747 mmHg 75%
    17:00 +13°C° 0.5 mm 1 mps 747 mmHg 80%
    18:00 +13°C° 0.5 mm 1 mps 747 mmHg 84%
    19:00 +12°C° 0.6 mm 1 mps 747 mmHg 86%
    20:00 +12°C° 0.6 mm 1 mps 748 mmHg 87%
    21:00 +12°C° 0.6 mm 1 mps 748 mmHg 88%
    22:00 +12°C° 0.2 mm 1 mps 748 mmHg 89%
    23:00 +12°C° 0.2 mm 1 mps 747 mmHg 89%

    24 November, Saturday

    Time Temperature Precipitation Wind Pressure Humidity
    00:00 +12°C° 0.2 mm 1 mps 747 mmHg 89%
    01:00 +11°C° 0 mm 1 mps 747 mmHg 90%
    02:00 +11°C° 0 mm 1 mps 747 mmHg 91%
    03:00 +10°C° 0 mm 1 mps 747 mmHg 91%
    04:00 +10°C° 0 mm 1 mps 747 mmHg 91%
    05:00 +10°C° 0 mm 1 mps 747 mmHg 91%
    06:00 +10°C° 0 mm 1 mps 747 mmHg 90%
    07:00 +10°C° 0 mm 1 mps 747 mmHg 87%
    08:00 +11°C° 0 mm 1 mps 748 mmHg 84%
    09:00 +12°C° 0 mm 1 mps 748 mmHg 81%
    10:00 +13°C° 0 mm 1 mps 748 mmHg 77%
    11:00 +14°C° 0 mm 2 mps 748 mmHg 73%
    12:00 +15°C° 0 mm 2 mps 748 mmHg 70%
    13:00 +15°C° 0 mm 2 mps 748 mmHg 70%
    14:00 +15°C° 0 mm 2 mps 747 mmHg 70%
    15:00 +15°C° 0 mm 2 mps 747 mmHg 71%
    16:00 +14°C° 0 mm 1 mps 748 mmHg 74%
    17:00 +13°C° 0 mm 1 mps 748 mmHg 76%
    18:00 +13°C° 0 mm 1 mps 748 mmHg 79%
    19:00 +12°C° 0 mm 1 mps 748 mmHg 80%
    20:00 +12°C° 0 mm 1 mps 749 mmHg 80%
    21:00 +11°C° 0 mm 1 mps 749 mmHg 81%
    22:00 +11°C° 0 mm 1 mps 749 mmHg 80%
    23:00 +10°C° 0 mm 1 mps 749 mmHg 79%
    Show more